Flag for Spain Weather past 2 weeks in A Coruña, Spain

Now
67 °F

Drizzle. Overcast.


Feels Like: 67 °F
Forecast: 65 / 71 °F
Wind: 9 mph from West

Location: La Coruna

Current Time: Jul 29, 2015 at 5:32:47 AM

Latest Report: Jul 29, 2015 at 4:00 AM


Visibility: 9 mi

Pressure: 29.99 "Hg

Humidity: 98%

Dew point: 66 °F

Location of A CoruñaLocation

Historic Weather in A Coruña — Graph

°F

A Coruña temperature yesterday

Maximum temperature yesterday: 76 °F (at 4:00 PM)
Minimum temperature yesterday: 63 °F (at 3:00 AM)
Average temperature yesterday: 70 °F

Past Weeks' High & Low Weather Summary

 TemperatureHumidityPressure
High79 °F (Jul 19, 4:00 PM)98% (Jul 29, 3:00 AM)30.22 "Hg (Jul 29, 3:00 AM)
Low59 °F (Jul 25, 7:00 AM)51% (Jul 27, 1:00 PM)29.88 "Hg (Jul 24, 7:00 AM)
Average69 °F79%30.07 "Hg
* Reported Jul 14 4:00 AM — Jul 29 4:00 AM, A Coruña, Weather by CustomWeather, © 2015

Note: Actual official high and low records may vary slightly from our data, if they occured in-between our weather recording intervals... More about our weather records

Advertising

A Coruña weather history for previous 24 hours

 ConditionsComfort  
Time TempWeatherWind HumidityBarometerVisibility
4:00 AM
Wed, Jul 29
67 °FDrizzle. Overcast.9 mph98%29.99 "Hg9 mi
3:00 AM67 °FDrizzle. Overcast.9 mph98%29.99 "Hg7 mi
2:00 AM68 °FRain. Low clouds.6 mph96%30.00 "Hg1 mi
1:00 AM69 °FRain. Overcast.7 mph93%29.99 "HgN/A
12:00 AM69 °FDrizzle. Overcast.9 mph93%30.00 "Hg6 mi
10:00 PM
Tue, Jul 28
71 °FMild.10 mph84%29.97 "Hg12 mi
9:00 PM73 °FDrizzle. Cloudy.12 mph78%29.97 "Hg12 mi
8:00 PM74 °FMild.14 mph73%29.97 "Hg12 mi
7:00 PM76 °FMild.13 mph69%29.98 "Hg12 mi
6:00 PM76 °FMild.12 mph69%29.98 "Hg12 mi
5:00 PM76 °FMild.9 mph68%29.99 "Hg12 mi
4:00 PM76 °FMild.10 mph66%30.00 "Hg12 mi
3:00 PM76 °FMild.12 mph63%30.01 "Hg12 mi
2:00 PM74 °FOvercast.12 mph69%30.03 "Hg16 mi
1:00 PM74 °FMild.10 mph72%30.03 "Hg12 mi
12:00 PM71 °FMild.10 mph79%30.03 "Hg12 mi
11:00 AM71 °FOvercast.7 mph77%30.03 "Hg16 mi
10:00 AM68 °FMild.7 mph80%30.04 "Hg6 mi
8:00 AM65 °FOvercast.7 mph76%30.05 "Hg16 mi
7:00 AM64 °FMild.7 mph76%30.05 "Hg5 mi
6:00 AM64 °FMild.5 mph75%30.06 "Hg6 mi
5:00 AM64 °FOvercast.2 mph74%30.07 "Hg16 mi
Weather by CustomWeather, © 2015

See weather overviewHow to use our weather pages